World > North America > United States > Washington > Index

Hourly Index, WA Regional Weather

Feedback E-mail the Weather

Quick WX

Index, WA Weather Maps

°F °C°F °C
Index Weather Map
UTC Time: 8/8/2022, 17:22
Your Time:

Index, WA Regional Weather

Expires:202208081800;;686425
ASUS46 KSEW 081720
RWRWA 

WASHINGTON REGIONAL WEATHER ROUNDUP
NATIONAL WEATHER SERVICE SEATTLE WA
1000 AM PDT MON AUG 08 2022

NOTE:"FAIR" INDICATES FEW OR NO CLOUDS BELOW 12,000 FEET WITH NO 
SIGNIFICANT WEATHER AND/OR OBSTRUCTIONS TO VISIBILITY.


WAZ507-509-555>559-081800-
SEATTLE, TACOMA, EVERETT, AND VICINITY
  
CITY           SKY/WX    TMP DP  RH WIND       PRES   REMARKS
EVERETT        SUNNY     72  57  59 NW5       30.01S                  
BOEING FIELD   SUNNY     73  58  59 NW6       29.97F                  
RENTON         SUNNY     74  57  55 N5        29.97F                  
SEATAC AIRPORT SUNNY     74  57  55 W3        29.99S                  
JBLM-MCCHORD   SUNNY     76  58  52 NW3       29.98F                  
PUYALLUP       FAIR      77  57  50 W3        29.99F                  
BREMERTON      SUNNY     77  58  51 VRB6      29.99F                  
JBLM-FT LEWIS    N/A     75  55  50 NW3       29.96F                  
TACOMA NARROWS SUNNY     74  55  51 NE9       29.99F                  
$$
 

SKY/WX - Weather  TMP - Temperature  DP - Dew Point  RH - Humidity
WIND - Wind Direction/Speed PRES - Barometric Pressure VSB - Visibility
WCI - Wind Chill Index E13G22 Wind - East Wind 13 mph/Gusts of 22 mph

Trending Headlines

Index Radar Loop



Index Quick Facts


National Two Day Weather Forecast


E-mail the Index Weather Forecast

Voice your opinion or tell us about page issues...